GSAT0215 (GALILEO 19)

Last updated on Fri Oct 11 2024 00:02:28 GMT+0000 (Coordinated Universal Time)

1 43055U 17079A 24284.27699853 .00000025 00000+0 00000+0 0 9995 2 43055 55.2953 238.4297 0002785 279.3319 80.6202 1.70473795 42501
UTC large
Height (km)
Speed (km/s)
/
Latitude / Longitude
Inclination (degrees)
Orbital Period (minutes)
Azimuth
Elevation
Range (km)
Doppler Factor

Next 0 passes for location: London (51.5072 / 0.1276)

Sorry there are no passes over London.